Tracking 30922 objects as of 2-Jul-2025
HD Live streaming from Space Station
objects crossing your sky now

COSMOS 839 DEB

Track COSMOS 839 DEB now!
10-day predictions


NORAD ID: 10417
Int'l Code: 1976-067L
Perigee: 900.9 km
Apogee: 2,066.2 km
Inclination: 65.6 °
Period: 115.5 minutes
Semi major axis: 7854 km
RCS: 0.0203 m2 (small)
Launch date: July 8, 1976
Source: Commonwealth of Independent States (former USSR) (CIS)
Launch site: PLESETSK MISSILE AND SPACE COMPLEX (PKMTR)

Note: This is SATELLITE DEBRIS
Your satellite tracking list
Your tracking list is empty




NASA's NSSDC Master Catalog

Two Line Element Set (TLE):
1 10417U 76067L   25180.11941758 -.00000060  00000-0 -16108-5 0  9990
2 10417  65.5826  67.7713 0741772 284.2857 235.8033 12.47154639485904
Source of the keplerian elements: AFSPC